Retour au catalogue

STARLINK-35621

ActifCommunicationsVLEO
NORAD 66156·PAYLOAD·🇺🇸 United States

Lancé Oct 25, 2025 depuis Cape Canaveral Space Force Station

Loading…

Prochains Passages (prochaines 24 heures)

TLE

FraisSource: CelesTrak SupGP

Époque: Sep 15, 2026, 03:22 UTC

1 66156C 25240L   26258.14076389 -.00035035  00000+0 -10350-2 0  2584
2 66156  53.1575 260.5071 0001330  93.6465  30.2701 15.34412351    16

Suivez STARLINK-35621 en temps réel avec AllMySat

Download on the App Store